AirNav   Pilot Hours Calculator
 
 950 users online  

17K Boise City Airport
Boise City, Oklahoma, USA

GOING TO BOISE CITY?


FAA INFORMATION EFFECTIVE 31 DECEMBER 2020

Location

FAA Identifier: 17K
Lat/Long: 36-46-27.5000N 102-30-37.6000W
36-46.458333N 102-30.626667W
36.7743056,-102.5104444
(estimated)
Elevation: 4174.3 ft. / 1272.3 m (surveyed)
Variation: 09E (1995)
From city: 3 miles N of BOISE CITY, OK
Time zone: UTC -6 (UTC -5 during Daylight Saving Time)
Zip code: 73933

Airport Operations

Airport use: Open to the public
Activation date: 08/1946
Control tower: no
ARTCC: ALBUQUERQUE CENTER
FSS: MC ALESTER FLIGHT SERVICE STATION
NOTAMs facility: MLC (NOTAM-D service available)
Attendance: UNATNDD
Wind indicator: lighted
Segmented circle: yes
Lights: ACTVT AND/OR INCR INTST MIRL RWY 04/22 - CTAF.
Beacon: white-green (lighted land airport)
Operates sunset to sunrise.

Airport Communications

CTAF: 122.9
  • APCH/DEP SVC PRVDD BY ALBUQUERQUE ARTCC ON FREQS 127.85/285.475 (MOUNT DORA RCAG).

Nearby radio navigation aids

NDB name  Hdg/Dist  Freq  Var  ID
ELKHART239/33.037707EEHA . .... .-

Airport Services

Parking: tiedowns
Airframe service: NONE
Powerplant service: NONE
Bottled oxygen: NONE
Bulk oxygen: NONE

Runway Information

Runway 4/22

Dimensions: 4211 x 60 ft. / 1284 x 18 m
Surface: asphalt, in fair condition
Weight bearing capacity: 
Single wheel: 4.0
Runway edge lights: medium intensity
RUNWAY 4  RUNWAY 22
Latitude: 36-46.232803N36-46.683457N
Longitude: 102-30.953885W102-30.298213W
Elevation: 4171.7 ft.4164.3 ft.
Traffic pattern: leftleft
Runway heading: 040 magnetic, 049 true220 magnetic, 229 true
Markings: nonprecision, in good conditionnonprecision, in good condition
Touchdown point: yes, no lightsyes, no lights
Obstructions: 25 ft. trees, 480 ft. from runway, 65 ft. right of centerline, 11:1 slope to clear
20 FT TREES 190 FT FM RWY THLD AND 240 FT RIGHT OF CNTRLN.
15 ft. road, 450 ft. from runway, 16:1 slope to clear

Airport Ownership and Management from official FAA records

Ownership: Publicly-owned
Owner: CITY OF BOISE CITY
P.O. BOX 129, 23 N. LOGAN
BOISE CITY, OK 73933
Phone 580-544-2271
Manager: WAYNE TWYMAN
CITY HALL, P.O. BOX 129
BOISE CITY, OK 73933
Phone 580-544-2271
CITY MGR.

Airport Operational Statistics

Aircraft based on the field: 12
Single engine airplanes: 10
Multi engine airplanes: 2
    
Aircraft operations: avg 67/week *
71% local general aviation
29% transient general aviation
* for 12-month period ending 26 November 2019

Additional Remarks

FOR CD CTC ALBUQUERQUE ARTCC AT 505-856-4861.

Instrument Procedures

NOTE: All procedures below are presented as PDF files. If you need a reader for these files, you should download the free Adobe Reader.

NOT FOR NAVIGATION. Please procure official charts for flight.
FAA instrument procedures published for use from 31 December 2020 at 0901Z to 28 January 2021 at 0900Z.

 
IAPs - Instrument Approach Procedures
RNAV (GPS) RWY 04   download (201KB)
NOTE: Special Take-Off Minimums/Departure Procedures apply   download (131KB)

Other nearby airports with instrument procedures:

KEHA - Elkhart-Morton County Airport (33 nm NE)
H70 - Stratford Field Airport (34 nm SE)
KCAO - Clayton Municipal Airpark (37 nm SW)
8V7 - Springfield Municipal Airport (41 nm N)
KDHT - Dalhart Municipal Airport (45 nm S)
 
Loc | Ops | Rwys | IFR | FBO | Links
Com | Nav | Svcs | Stats | Notes

AirBoss

 
Area around 17K (Boise City Airport)
 
Road maps at: MapQuest Bing Google
 
Aerial photo
WARNING: Photo may not be current or correct
Aerial photo of 17K (Boise City Airport)
Photo by Ron Lee

Do you have a better or more recent aerial photo of Boise City Airport that you would like to share? If so, please send us your photo.

 
Sectional chart

 
Airport distance calculator
Flying to Boise City Airport? Find the distance to fly.

From to 17K

Sunrise and sunset
Times for 24-Jan-2021
 Local
(UTC-6)
 Zulu
(UTC)
Morning civil twilight07:3113:31
Sunrise07:5913:59
Sunset18:0600:06
Evening civil twilight18:3300:33

Current date and time
Zulu (UTC)  25-Jan-2021 01:17:25
Local (UTC-6)  24-Jan-2021 19:17:25
 
METAR
KSPD 
31nm N 
250056Z AUTO 11007KT 00/M04 A2975 RMK AO1 SLP085 T00001044
KEHA 
32nm NE 
250055Z AUTO 12008KT 10SM OVC044 03/M01 A2978 RMK AO2 T00301007
KCAO 
36nm SW 
250055Z AUTO 14004KT 10SM OVC024 02/M04 A2973 RMK AO2 SLP078 T00171044
KDHT 
45nm S 
250053Z AUTO 11009KT 10SM OVC020 04/M03 A2974 RMK AO2 SLP073 T00391028
KGUY 
49nm E 
250053Z AUTO 10007KT 10SM BKN037 BKN047 03/M03 A2978 RMK AO2 SLP091 T00281028
TAF
KDHT 
45nm S 
241735Z 2418/2518 05010KT P6SM SCT250 TEMPO 2418/2422 P6SM OVC015 FM250100 11010KT P6SM OVC015 PROB30 2503/2509 3SM -FZRASN BR OVC007 FM250900 10010KT 1SM BR OVC003 FM251500 34010KT 5SM BR OVC010
KGUY 
49nm E 
241735Z 2418/2518 04010KT P6SM OVC015 TEMPO 2420/2424 P6SM SCT250 FM250000 05008KT P6SM OVC015 FM250500 05008KT 1SM -FZRA BR OVC004 FM251200 02008KT 1SM BR OVC004
NOTAMs
Click for the latest NOTAMs
NOTAMs are issued by the DoD/FAA and will open in a separate window not controlled by AirNav.

 

 
 

Would you like to see your business listed on this page?

 If your business provides an interesting product or service to pilots, flight crews, aircraft, or users of the Boise City Airport, you should consider listing it here.  To start the listing process, click on the button below
 
Add a business
 

Other Pages about Boise City Airport

Update a link
 
Copyright © AirNav, LLC. All rights reserved. Privacy Policy  Contact